Regional Weather Roundup
Issued by NWS

Current Version | Previous Version | Text Only | Print | Product List | Glossary Off
Versions: 1 2 3 4 5 6 7 8 9 10 11 12 13 14 15 16 17 18 19 20 21 22 23 24 25 26 27 28 29 30 31 32 33 34 35 36 37 38 39 40 41 42 43 44 45 46 47 48 49 50

000
ASUS44 KBMX 040810
RWRAL

ALABAMA REGIONAL WEATHER ROUNDUP
NATIONAL WEATHER SERVICE BIRMINGHAM AL
300 AM CDT SAT JUL 04 2015

NOTE: "FAIR" INDICATES FEW OR NO CLOUDS BELOW 12,000 FEET
WITH NO SIGNIFICANT WEATHER AND/OR OBSTRUCTIONS TO VISIBILITY.

THE REMARK "TC" DENOTES TEMPERATURE IN DEGREES CELSIUS.

ALZ001>011-014-016>018-020-040900-
NORTH ALABAMA

CITY           SKY/WX    TMP DP  RH WIND       PRES   REMARKS
MUSCLE SHOALS  CLOUDY    70  66  87 SW5       29.96F
HUNTSVILLE     CLOUDY    71  66  84 SW8       29.97R
DECATUR        CLOUDY    69  67  93 SW8       29.97S
HALEYVILLE     LGT RAIN  68  68 100 CALM      30.01S
GADSDEN        CLOUDY    79  64  61 NW7       30.01R
$$

ALZ012-013-022-023-030>036-040>044-040900-
WEST CENTRAL ALABAMA

CITY           SKY/WX    TMP DP  RH WIND       PRES   REMARKS
TUSCALOOSA     CLOUDY    72  70  93 S5        29.97S
$$

ALZ015-024>027-033>036-040>044-040900-
CENTRAL ALABAMA

CITY           SKY/WX    TMP DP  RH WIND       PRES   REMARKS
BIRMINGHAM     CLOUDY    71  69  93 VRB5      30.03R
MONTGOMERY     CLOUDY    73  69  87 S8        29.99F
SHELBY CO ARPT CLOUDY    70  69  97 SE3       30.00F
MAXWELL AFB    CLOUDY    71  70  95 S3        30.00F
GREENVILLE     MOCLDY    76  74  93 SE5       30.02
$$

ALZ019-021-028-029-037-038-045>048-040900-
EAST CENTRAL ALABAMA

CITY           SKY/WX    TMP DP  RH WIND       PRES   REMARKS
ANNISTON       CLOUDY    70  68  93 CALM      30.01F
ALEXANDER CITY CLOUDY    67  64  90 CALM      30.03S
AUBURN         CLOUDY    68  64  88 SE7       30.04F
$$

ALZ051>064-040900-
SOUTHWEST ALABAMA

CITY           SKY/WX    TMP DP  RH WIND       PRES   REMARKS
MOBILE         PTCLDY    77  76  96 S5        30.04S
BROOKLEY FIELD PTCLDY    79  76  90 SW3       30.04S
EVERGREEN      NOT AVBL
$$

ALZ049-050-065>069-040900-
SOUTHEAST ALABAMA

CITY           SKY/WX    TMP DP  RH WIND       PRES   REMARKS
DOTHAN         MOCLDY    75  75 100 CALM        N/A
OZARK          CLEAR     75  74  99 CALM      30.05S
TROY           CLOUDY    75  69  81 E6        30.06F
EUFAULA        FAIR      73  68  84 CALM      30.06F
$$


USA.gov is the U.S. government's official web portal to all federal, state and local government web resources and services.